Miscellaneous Local Product
Issued by NWS North Platte, NE

Home | Current Version | Previous Version | Graphics & Text | Print | Product List | Glossary Off
Versions: 1 2 3 4 5 6 7 8 9 10 11 12 13 14 15 16 17 18 19 20 21 22 23 24 25 26 27 28 29 30 31 32 33 34 35 36 37 38 39 40 41 42 43 44 45 46 47 48 49 50

000
AXUS43 KLBF 200310
MISLBF


WESTERN AND NORTH CENTRAL NEBRASKA HOURLY WEATHER ROUNDUP
NATIONAL WEATHER SERVICE NORTH PLATTE NE
900 PM CST FRI JAN 19 2018

NOTE: "FAIR" INDICATES FEW OR NO CLOUDS BELOW 12,000 FEET WITH NO
SIGNIFICANT WEATHER AND/OR OBSTRUCTIONS TO VISIBILITY.

NOTE: STATIONS NOT REPORTING VARIABLES SUCH AS SKY/WEATHER OR
PRESSURE ARE PROVIDED BY RAWS AND APRS NETWORKS AND ARE NOT UNDER
NATIONAL WEATHER SERVICE QUALITY CONTROL.

...OBSERVATIONS IN AND NEAR THE EASTERN PANHANDLE OF NEBRASKA...

CITY           SKY/WX    TMP DP  RH WIND       PRES   REMARKS
PINE RIDGE     PTCLDY    28  27  96 NE5       29.75R WCI  23
GORDON         FAIR      30  28  92 CALM      29.74R
CHADRON        MOCLDY    29  27  92 SW8       29.76R WCI  21
ALLIANCE       MOCLDY    30  29  96 NE3       29.74R
SIDNEY         CLOUDY    35  24  64 VRB3      29.74R
CRESCENT LAKE    N/A     35  29  79 NE7         N/A  WCI  29
$$

...OBSERVATIONS IN NORTHERN NEBRASKA AND FAR SOUTHERN SOUTH DAKOTA...

CITY           SKY/WX    TMP DP  RH WIND       PRES   REMARKS
WINNER         FAIR      36  31  82 W6        29.75S WCI  31
VALENTINE      MOCLDY    36  31  82 NW3       29.76R
AINSWORTH      CLOUDY    32  30  93 CALM      29.76R
O`NEILL        CLOUDY    36  33  88 NW6       29.76R WCI  31
THEDFORD       CLOUDY    35  32  88 CALM      29.76R
BROKEN BOW     CLOUDY    40  32  73 N6        29.73S
ORD            MOCLDY    36  31  82 NW7       29.74R WCI  30
ALBION         CLOUDY    37  32  82 NW6       29.73S WCI  32
VALENTINE NWR    N/A     35  32  89 CALM        N/A
HALSEY           N/A     37  31  80 CALM        N/A
BUTTE            N/A     38  31  74 CALM        N/A
CHAMBERS         N/A     34  28  79 CALM        N/A
EWING            N/A     35  31  84 CALM        N/A
$$

...OBSERVATIONS IN SOUTHWEST NEBRASKA AND FAR NORTHEAST COLORADO...

CITY           SKY/WX    TMP DP  RH WIND       PRES   REMARKS
WRAY           FAIR      43  25  49 CALM      29.73R
HOLYOKE        FAIR      37  27  65 N9        29.74R WCI  31
IMPERIAL       CLOUDY    34  27  75 N3        29.73S
OGALLALA       CLOUDY    35  30  84 CALM      29.77R
NORTH PLATTE   CLOUDY    40  31  70 NE3       29.74R
MCCOOK         CLOUDY    35  25  66 CALM      29.72R
LEXINGTON      CLOUDY    37  31  78 CALM      29.73S
STAPLETON        N/A     36  32  84 CALM        N/A
GOTHENBURG       N/A     41  32  69 N7          N/A
CALLAWAY         N/A     37  30  77 E6          N/A  WCI  32
$$

...OBSERVATIONS IN CENTRAL LINCOLN COUNTY AREA...

CITY           SKY/WX    TMP DP  RH WIND       PRES   REMARKS
N.P. AIRPORT   CLOUDY    40  31  70 NE3       29.74R
N.P. DOWNTOWN    N/A     39  33  78 CALM        N/A
N.P. SOUTHEAST   N/A     39  32  76 CALM        N/A
N.P. HILLCREST   N/A     39  33  80 NE12        N/A  WCI  32
$$

...SOME OBSERVATIONS FROM AROUND THE REGION...

CITY           SKY/WX    TMP DP  RH WIND       PRES   REMARKS
DENVER         MOCLDY    43  19  38 SE12      29.74S
BERTHOUD PASS  FAIR      28  16  59 W48G67    29.95F WCI   9
GRAND JUNCTION CLOUDY    38  21  50 E7        29.86F WCI  33
LARAMIE        PTCLDY    36  18  48 SE8       29.77R WCI  30
CHEYENNE       PTCLDY    44  18  35 S6        29.77R
CASPER         CLOUDY    42  26  53 SW12      29.71R
BISMARCK       PTCLDY    37  31  78 NW5       29.70R WCI  33
RAPID CITY     PTCLDY    30  27  88 N3        29.74S
PIERRE         CLEAR     29  28  96 W9        29.74R WCI  20
SIOUX FALLS    CLOUDY    33  30  88 CALM      29.72R
OMAHA          CLOUDY    34  27  75 SE10      29.75R WCI  26
GRAND ISLAND   CLOUDY    32  30  92 CALM      29.74R
SCOTTSBLUFF    CLOUDY    37  30  75 NE3       29.73R
KANSAS CITY    CLOUDY    44  27  51 SW18      29.80R
HILL CITY      CLOUDY    41  19  41 E9        29.68F
WICHITA        CLOUDY    45  25  45 S14       29.80S
DODGE CITY     CLOUDY    49  15  25 S15       29.72R
OKLAHOMA CITY  CLOUDY    47  38  71 S17       29.89R
DALLAS         CLOUDY    54  43  66 S13       30.04S
AMARILLO       CLOUDY    47  14  26 S9        29.79S
$$




USA.gov is the U.S. government's official web portal to all federal, state and local government web resources and services.